Regional Weather Roundup
Issued by NWS Bismarck, ND

Home | Current Version | Previous Version | Text Only | Print | Product List | Glossary On
Versions: 1 2 3 4 5 6 7 8 9 10 11 12 13 14 15 16 17 18 19 20 21 22 23 24 25 26 27 28 29 30 31 32 33 34 35 36 37 38 39 40 41 42 43 44 45 46 47 48 49 50
000
ASUS43 KBIS 231202
RWRBIS

NWR BROADCAST TEXT
NATIONAL WEATHER SERVICE BISMARCK ND
700 AM CDT WED AUG 23 2017

NOTE: "FAIR" INDICATES FEW OR NO CLOUDS BELOW 12,000 FEET WITH NO
SIGNIFICANT WEATHER AND/OR OBSTRUCTIONS TO VISIBILITY.


CITY           SKY/WX    TMP DP  RH WIND       PRES   REMARKS
WILLISTON      CLEAR     54  43  66 CALM      30.03F
MINOT          CLOUDY    58  47  66 S7        30.02S
MINOT AFB      PTCLDY    52  46  82 SE3       30.01S
BISMARCK       CLEAR     49  46  90 NE6       30.08S
DICKINSON      CLEAR     52  43  71 S9        30.06S
GARRISON         N/A     52  46  80 S3        30.05S
HETTINGER ARPT CLEAR     54  45  71 E9        30.09S
JAMESTOWN      CLEAR     48  45  89 CALM      30.09S
CARRINGTON     FAIR      50  46  87 SE7       30.11S
HAZEN            N/A     43  43 100 CALM      30.07F
LINTON         FAIR      46  43  87 E8        30.10S
MANDAN         FAIR      54  45  71 S7        30.08S
RUGBY          PTSUNNY   50  48  93 SE7       30.05S
STANLEY        FAIR      55  45  67 CALM      30.06S
TIOGA          FAIR      57  39  51 CALM      30.05S
WATFORD CITY   FAIR      52  41  66 S3        30.03F
$$

CITY           SKY/WX    TMP DP  RH WIND       PRES   REMARKS
GRAND FORKS    MOCLDY    50  47  89 E3        30.10R
GRAND FORKS AF CLOUDY    46  45  96 CALM      30.10R
DEVILS LAKE    PTCLDY    55  50  83 SE5       30.09R
FARGO          CLEAR     46  45  96 CALM      30.11R
CANDO          FAIR      48  48 100 E7        30.09F
CAVALIER       FAIR      50  50 100 S3        30.09R
GRAFTON        PTSUNNY   48  48 100 E3        30.11S
GWINNER        SUNNY     48  48 100 CALM      30.12R
LANGDON        FAIR      50  50 100 SE5       30.09R
ROLLA          FAIR      45  45 100 S3        30.07S
WALHALLA       FAIR      52  52 100 CALM      30.09R
$$

CITY           SKY/WX    TMP DP  RH WIND       PRES   REMARKS
ABERDEEN       CLEAR     43  43 100 SE3       30.11S
MOBRIDGE       CLEAR     58  45  62 E8        30.06S
BUFFALO          N/A     52  47  83 NE7       30.01S
RAPID CITY     CLEAR     52  47  83 CALM      30.05S
GLASGOW        CLEAR     57  37  47 E12       29.99S
SIDNEY         CLEAR     50  44  80 S5        30.04S
WOLF POINT     CLEAR     51  39  63 E3        30.01S
GLENDIVE       CLEAR     55  42  61 CALM      30.05S
MILES CITY     CLEAR     56  41  57 NE7       30.01F
BAKER          CLEAR     52  43  71 E10       30.07F
$$

CITY           SKY/WX    TMP DP  RH WIND       PRES   REMARKS
BILLINGS       PTCLDY    60  37  42 SW14      30.04S
GREAT FALLS    CLEAR     53  32  44 W8        30.02S
$$





USA.gov is the U.S. government's official web portal to all federal, state and local government web resources and services.